| time (UTC) | temp C | wind direction | speed KPH | gust KPH | rain 1hr cm | rain 24hr cm | rain mn cm | humidity % | barometer mb |
| 20260504225049 | 20 | 200 | 3.2 | 16.1 | 0.00 | 0.00 | 0.00 | 33 | 1005.4 |
| 20260504224600 | 20 | 166 | 1.6 | 16.1 | 0.00 | 0.00 | 0.00 | 32 | 1005.3 |
| 20260504224046 | 20 | 186 | 3.2 | 12.9 | 0.00 | 0.00 | 0.00 | 32 | 1005.2 |
| 20260504223546 | 20 | 249 | 4.8 | 12.9 | 0.00 | 0.00 | 0.00 | 32 | 1005.2 |
| 20260504223047 | 21 | 128 | 1.6 | 17.7 | 0.00 | 0.00 | 0.00 | 32 | 1005.2 |
| 20260504222546 | 21 | 222 | 1.6 | 25.7 | 0.00 | 0.00 | 0.00 | 31 | 1005.2 |
| 20260504222045 | 21 | 182 | 3.2 | 25.7 | 0.00 | 0.00 | 0.00 | 31 | 1005.1 |
| 20260504221546 | 21 | 235 | 4.8 | 27.4 | 0.00 | 0.00 | 0.00 | 30 | 1005.1 |
| 20260504221044 | 21 | 233 | 9.7 | 27.4 | 0.00 | 0.00 | 0.00 | 30 | 1005.2 |
| 20260504220544 | 21 | 238 | 8.0 | 24.1 | 0.00 | 0.00 | 0.00 | 30 | 1005.2 |
| 20260504220052 | 21 | 247 | 9.7 | 24.1 | 0.00 | 0.00 | 0.00 | 30 | 1005.2 |
| 20260504215544 | 21 | 249 | 4.8 | 24.1 | 0.00 | 0.00 | 0.00 | 30 | 1005.3 |
| 20260504215045 | 21 | 266 | 8.0 | 19.3 | 0.00 | 0.00 | 0.00 | 30 | 1005.3 |
| 20260504214547 | 21 | 204 | 8.0 | 19.3 | 0.00 | 0.00 | 0.00 | 30 | 1005.2 |
| 20260504214044 | 21 | 236 | 8.0 | 24.1 | 0.00 | 0.00 | 0.00 | 30 | 1005.2 |
| 20260504213544 | 21 | 215 | 8.0 | 25.7 | 0.00 | 0.00 | 0.00 | 29 | 1005.1 |
| 20260504213044 | 22 | 299 | 6.4 | 25.7 | 0.00 | 0.00 | 0.00 | 29 | 1005.1 |
| 20260504212544 | 22 | 234 | 9.7 | 25.7 | 0.00 | 0.00 | 0.00 | 29 | 1005.3 |
| 20260504212044 | 22 | 218 | 6.4 | 30.6 | 0.00 | 0.00 | 0.00 | 29 | 1005.3 |
| 20260504211543 | 22 | 302 | 8.0 | 30.6 | 0.00 | 0.00 | 0.00 | 29 | 1005.2 |
| 20260504211042 | 22 | 205 | 6.4 | 25.7 | 0.00 | 0.00 | 0.00 | 30 | 1005.2 |
| 20260504210543 | 22 | 156 | 6.4 | 24.1 | 0.00 | 0.00 | 0.00 | 29 | 1005.1 |
| 20260504210053 | 22 | 14 | 6.4 | 30.6 | 0.00 | 0.00 | 0.00 | 30 | 1005.2 |
| 20260504205539 | 22 | 172 | 11.3 | 30.6 | 0.00 | 0.00 | 0.00 | 30 | 1005.2 |
| 20260504205038 | 22 | 182 | 8.0 | 25.7 | 0.00 | 0.00 | 0.00 | 30 | 1005.1 |
| 20260504204546 | 21 | 250 | 4.8 | 29.0 | 0.00 | 0.00 | 0.00 | 31 | 1005.1 |
| 20260504204038 | 21 | 259 | 4.8 | 29.0 | 0.00 | 0.00 | 0.00 | 30 | 1005.2 |
| 20260504203538 | 21 | 119 | 6.4 | 24.1 | 0.00 | 0.00 | 0.00 | 30 | 1005.2 |
| 20260504203039 | 21 | 273 | 8.0 | 24.1 | 0.00 | 0.00 | 0.00 | 31 | 1005.2 |
| 20260504202537 | 21 | 317 | 3.2 | 19.3 | 0.00 | 0.00 | 0.00 | 32 | 1005.4 |
| 20260504202034 | 21 | 115 | 3.2 | 19.3 | 0.00 | 0.00 | 0.00 | 32 | 1005.4 |
| 20260504201536 | 21 | 175 | 3.2 | 16.1 | 0.00 | 0.00 | 0.00 | 31 | 1005.3 |
| 20260504201033 | 21 | 179 | 8.0 | 16.1 | 0.00 | 0.00 | 0.00 | 31 | 1005.3 |
| 20260504200535 | 21 | 281 | 4.8 | 22.5 | 0.00 | 0.00 | 0.00 | 32 | 1005.4 |
| 20260504200043 | 21 | 180 | 8.0 | 22.5 | 0.00 | 0.00 | 0.00 | 31 | 1005.4 |
| 20260504195531 | 21 | 167 | 8.0 | 17.7 | 0.00 | 0.00 | 0.00 | 30 | 1005.2 |
| 20260504195032 | 21 | 139 | 4.8 | 19.3 | 0.00 | 0.00 | 0.00 | 31 | 1005.3 |
| 20260504194531 | 21 | 157 | 8.0 | 35.4 | 0.00 | 0.00 | 0.00 | 30 | 1005.3 |
| 20260504194030 | 21 | 229 | 14.5 | 35.4 | 0.00 | 0.00 | 0.00 | 31 | 1005.3 |
| 20260504193530 | 21 | 310 | 6.4 | 29.0 | 0.00 | 0.00 | 0.00 | 32 | 1005.3 |
| 20260504193029 | 21 | 269 | 6.4 | 29.0 | 0.00 | 0.00 | 0.00 | 32 | 1005.5 |
| 20260504192529 | 21 | 221 | 1.6 | 20.9 | 0.00 | 0.00 | 0.00 | 30 | 1005.2 |
| 20260504192030 | 21 | 261 | 8.0 | 20.9 | 0.00 | 0.00 | 0.00 | 30 | 1005.4 |
| 20260504191528 | 21 | 236 | 4.8 | 24.1 | 0.00 | 0.00 | 0.00 | 30 | 1005.4 |
| 20260504191027 | 21 | 355 | 8.0 | 24.1 | 0.00 | 0.00 | 0.00 | 31 | 1005.5 |
| 20260504190527 | 21 | 148 | 8.0 | 27.4 | 0.00 | 0.00 | 0.00 | 31 | 1005.5 |
| 20260504190025 | 21 | 227 | 6.4 | 27.4 | 0.00 | 0.00 | 0.00 | 30 | 1005.6 |
| 20260504185523 | 21 | 262 | 8.0 | 24.1 | 0.00 | 0.00 | 0.00 | 32 | 1005.5 |
| 20260504185023 | 21 | 239 | 4.8 | 24.1 | 0.00 | 0.00 | 0.00 | 31 | 1005.6 |
| 20260504184532 | 21 | 190 | 6.4 | 22.5 | 0.00 | 0.00 | 0.00 | 30 | 1005.9 |
| 20260504184021 | 21 | 195 | 3.2 | 17.7 | 0.00 | 0.00 | 0.00 | 32 | 1005.7 |
| 20260504183520 | 21 | 168 | 3.2 | 17.7 | 0.00 | 0.00 | 0.00 | 30 | 1005.6 |
| 20260504183025 | 21 | 158 | 4.8 | 14.5 | 0.00 | 0.00 | 0.00 | 31 | 1005.7 |
| 20260504182518 | 20 | 178 | 6.4 | 14.5 | 0.00 | 0.00 | 0.00 | 30 | 1005.7 |
| 20260504182021 | 20 | 165 | 4.8 | 25.7 | 0.00 | 0.00 | 0.00 | 30 | 1005.9 |
| 20260504181517 | 20 | 278 | 8.0 | 20.9 | 0.00 | 0.00 | 0.00 | 31 | 1005.6 |
| 20260504181016 | 20 | 232 | 8.0 | 30.6 | 0.00 | 0.00 | 0.00 | 32 | 1005.8 |
| 20260504180516 | 20 | 189 | 8.0 | 22.5 | 0.00 | 0.00 | 0.00 | 31 | 1005.7 |
| 20260504180015 | 20 | 173 | 9.7 | 25.7 | 0.00 | 0.00 | 0.00 | 31 | 1006.0 |
| 20260504175514 | 20 | 182 | 9.7 | 25.7 | 0.00 | 0.00 | 0.00 | 31 | 1005.9 |
| 20260504175013 | 20 | 160 | 3.2 | 24.1 | 0.00 | 0.00 | 0.00 | 32 | 1005.9 |
| 20260504174513 | 20 | 162 | 11.3 | 24.1 | 0.00 | 0.00 | 0.00 | 30 | 1005.9 |
| 20260504174012 | 20 | 240 | 4.8 | 24.1 | 0.00 | 0.00 | 0.00 | 30 | 1006.0 |
| 20260504173514 | 21 | 232 | 9.7 | 29.0 | 0.00 | 0.00 | 0.00 | 29 | 1005.9 |
| 20260504173011 | 21 | 169 | 4.8 | 27.4 | 0.00 | 0.00 | 0.00 | 32 | 1005.9 |
| 20260504172512 | 21 | 154 | 8.0 | 27.4 | 0.00 | 0.00 | 0.00 | 31 | 1005.9 |
| 20260504172011 | 21 | 294 | 3.2 | 17.7 | 0.00 | 0.00 | 0.00 | 31 | 1006.1 |
| 20260504171507 | 20 | 172 | 6.4 | 25.7 | 0.00 | 0.00 | 0.00 | 32 | 1006.1 |
| 20260504171008 | 20 | 265 | 6.4 | 25.7 | 0.00 | 0.00 | 0.00 | 32 | 1006.2 |
| 20260504170505 | 20 | 166 | 9.7 | 25.7 | 0.00 | 0.00 | 0.00 | 32 | 1006.1 |
| 20260504151044 | 18 | 171 | 6.4 | 19.3 | 0.00 | 0.00 | 0.00 | 38 | 1007.2 |
| 20260504150543 | 18 | 235 | 6.4 | 19.3 | 0.00 | 0.00 | 0.00 | 37 | 1007.2 |
| 20260504141031 | 15 | 230 | 3.2 | 24.1 | 0.00 | 0.00 | 0.00 | 43 | 1008.2 |
| 20260504140526 | 15 | 227 | 8.0 | 24.1 | 0.00 | 0.00 | 0.00 | 44 | 1008.4 |
| 20260504130514 | 13 | 201 | 4.8 | 20.9 | 0.00 | 0.00 | 0.00 | 53 | 1008.7 |
| 20260504120124 | 8 | 171 | 3.2 | 4.8 | 0.00 | 0.00 | 0.00 | 68 | 1009.2 |
| 20260504110538 | 3 | 241 | 0.0 | 1.6 | 0.00 | 0.00 | 0.00 | 81 | 1009.5 |
| 20260504100532 | 2 | 241 | 0.0 | 1.6 | 0.00 | 0.00 | 0.00 | 86 | 1009.4 |
| 20260504081527 | 2 | 238 | 0.0 | 1.6 | 0.00 | 0.00 | 0.00 | 87 | 1009.3 |
| 20260504081022 | 2 | 238 | 0.0 | 1.6 | 0.00 | 0.00 | 0.00 | 87 | 1009.3 |
| 20260504080526 | 2 | 238 | 0.0 | 1.6 | 0.00 | 0.00 | 0.00 | 87 | 1009.3 |
| 20260504050503 | 0 | 238 | 0.0 | 0.0 | 0.00 | 0.00 | 0.00 | 84 | 1009.3 |
| 20260504050002 | 0 | 238 | 0.0 | 0.0 | 0.00 | 0.00 | 0.00 | 84 | 1009.4 |
| 20260504045500 | 0 | 238 | 0.0 | 0.0 | 0.00 | 0.00 | 0.00 | 83 | 1009.4 |
| 20260504045003 | 0 | 238 | 0.0 | 1.6 | 0.00 | 0.00 | 0.00 | 83 | 1009.4 |
| 20260504044600 | 0 | 238 | 0.0 | 1.6 | 0.00 | 0.00 | 0.00 | 83 | 1009.3 |
| 20260504044100 | 0 | 238 | 0.0 | 0.0 | 0.00 | 0.00 | 0.00 | 82 | 1009.3 |
| 20260504043559 | 0 | 238 | 0.0 | 1.6 | 0.00 | 0.00 | 0.00 | 82 | 1009.3 |
| 20260504043114 | 0 | 238 | 0.0 | 1.6 | 0.00 | 0.00 | 0.00 | 81 | 1009.4 |
| 20260504042558 | 0 | 238 | 0.0 | 1.6 | 0.00 | 0.00 | 0.00 | 81 | 1009.4 |
| 20260504042059 | 0 | 238 | 0.0 | 1.6 | 0.00 | 0.00 | 0.00 | 80 | 1009.3 |
| 20260504041555 | 1 | 234 | 0.0 | 0.0 | 0.00 | 0.00 | 0.00 | 80 | 1009.3 |
| 20260504041056 | 1 | 238 | 0.0 | 0.0 | 0.00 | 0.00 | 0.00 | 80 | 1009.3 |
| 20260504040555 | 1 | 238 | 0.0 | 0.0 | 0.00 | 0.00 | 0.00 | 79 | 1009.2 |
| 20260504040052 | 1 | 238 | 0.0 | 0.0 | 0.00 | 0.00 | 0.00 | 78 | 1009.1 |
| 20260504035553 | 1 | 238 | 0.0 | 0.0 | 0.00 | 0.03 | 0.00 | 78 | 1009.2 |
| 20260504035050 | 1 | 238 | 0.0 | 0.0 | 0.00 | 0.03 | 0.00 | 78 | 1009.1 |
| 20260504034553 | 1 | 238 | 0.0 | 0.0 | 0.00 | 0.03 | 0.00 | 78 | 1009.1 |
| 20260504034051 | 1 | 238 | 0.0 | 0.0 | 0.00 | 0.03 | 0.00 | 78 | 1009.0 |
| 20260504033548 | 1 | 238 | 0.0 | 1.6 | 0.00 | 0.03 | 0.00 | 78 | 1009.1 |
| 20260504033050 | 1 | 238 | 0.0 | 1.6 | 0.00 | 0.03 | 0.00 | 77 | 1009.1 |
| 20260504032547 | 1 | 238 | 0.0 | 0.0 | 0.00 | 0.03 | 0.00 | 76 | 1009.0 |
| 20260504032047 | 1 | 238 | 0.0 | 1.6 | 0.00 | 0.03 | 0.00 | 76 | 1009.0 |
| 20260504031552 | 2 | 238 | 0.0 | 1.6 | 0.00 | 0.03 | 0.00 | 75 | 1008.9 |
| 20260504031047 | 2 | 238 | 0.0 | 0.0 | 0.00 | 0.03 | 0.00 | 75 | 1009.0 |
| 20260504030544 | 2 | 238 | 0.0 | 0.0 | 0.00 | 0.03 | 0.00 | 74 | 1009.0 |
| 20260504030101 | 2 | 238 | 0.0 | 0.0 | 0.00 | 0.03 | 0.00 | 74 | 1009.0 |
| 20260504025543 | 2 | 238 | 0.0 | 1.6 | 0.00 | 0.03 | 0.00 | 74 | 1009.0 |
| 20260504025044 | 2 | 238 | 0.0 | 1.6 | 0.00 | 0.03 | 0.00 | 73 | 1009.0 |
| 20260504024542 | 2 | 238 | 0.0 | 1.6 | 0.00 | 0.03 | 0.00 | 72 | 1009.0 |
| 20260504024041 | 2 | 238 | 0.0 | 0.0 | 0.00 | 0.03 | 0.00 | 71 | 1008.9 |
| 20260504023541 | 2 | 238 | 0.0 | 0.0 | 0.00 | 0.03 | 0.00 | 71 | 1008.9 |
| 20260504023041 | 2 | 238 | 0.0 | 0.0 | 0.00 | 0.03 | 0.00 | 70 | 1008.9 |
| 20260504022542 | 2 | 238 | 0.0 | 0.0 | 0.00 | 0.03 | 0.00 | 70 | 1008.9 |
| 20260504022040 | 3 | 238 | 0.0 | 0.0 | 0.00 | 0.03 | 0.00 | 70 | 1009.0 |
| 20260504021545 | 3 | 238 | 0.0 | 1.6 | 0.00 | 0.03 | 0.00 | 69 | 1008.9 |
| 20260504021037 | 3 | 238 | 0.0 | 3.2 | 0.00 | 0.03 | 0.00 | 69 | 1009.0 |
| 20260504020540 | 3 | 238 | 0.0 | 3.2 | 0.00 | 0.03 | 0.00 | 68 | 1008.9 |
| 20260504020038 | 3 | 238 | 0.0 | 3.2 | 0.00 | 0.03 | 0.00 | 68 | 1008.8 |
| 20260504015536 | 3 | 238 | 0.0 | 3.2 | 0.00 | 0.03 | 0.00 | 68 | 1008.7 |
| 20260504015036 | 3 | 238 | 0.0 | 3.2 | 0.00 | 0.03 | 0.00 | 67 | 1008.7 |
| 20260504014536 | 3 | 238 | 0.0 | 1.6 | 0.00 | 0.03 | 0.00 | 66 | 1008.7 |
| 20260504014035 | 3 | 238 | 0.0 | 1.6 | 0.00 | 0.03 | 0.00 | 66 | 1008.7 |
| 20260504013536 | 4 | 238 | 0.0 | 1.6 | 0.00 | 0.03 | 0.00 | 65 | 1008.6 |
| 20260504013037 | 4 | 238 | 0.0 | 0.0 | 0.00 | 0.03 | 0.00 | 65 | 1008.6 |
| 20260504012535 | 4 | 238 | 0.0 | 1.6 | 0.00 | 0.03 | 0.00 | 64 | 1008.6 |
| 20260504012035 | 5 | 238 | 0.0 | 1.6 | 0.00 | 0.03 | 0.00 | 63 | 1008.6 |
| 20260504011535 | 5 | 238 | 0.0 | 1.6 | 0.00 | 0.03 | 0.00 | 63 | 1008.5 |
| 20260504011037 | 5 | 238 | 0.0 | 1.6 | 0.00 | 0.03 | 0.00 | 62 | 1008.4 |
| 20260504010534 | 5 | 238 | 0.0 | 1.6 | 0.00 | 0.03 | 0.00 | 62 | 1008.4 |
| 20260504010034 | 5 | 238 | 0.0 | 1.6 | 0.00 | 0.03 | 0.00 | 61 | 1008.4 |
| 20260504005534 | 5 | 238 | 0.0 | 1.6 | 0.00 | 0.03 | 0.00 | 60 | 1008.3 |
| 20260504005034 | 5 | 238 | 0.0 | 1.6 | 0.00 | 0.03 | 0.00 | 60 | 1008.3 |
| 20260504004542 | 6 | 238 | 0.0 | 1.6 | 0.00 | 0.03 | 0.00 | 59 | 1008.2 |
| 20260504004035 | 6 | 238 | 0.0 | 1.6 | 0.00 | 0.03 | 0.00 | 58 | 1008.1 |
| 20260504003533 | 6 | 238 | 0.0 | 1.6 | 0.00 | 0.03 | 0.00 | 56 | 1008.0 |
| 20260504003033 | 6 | 238 | 0.0 | 1.6 | 0.00 | 0.03 | 0.00 | 55 | 1008.0 |
| 20260504002533 | 7 | 238 | 0.0 | 1.6 | 0.00 | 0.03 | 0.00 | 54 | 1008.0 |
| 20260504002034 | 7 | 238 | 0.0 | 1.6 | 0.00 | 0.03 | 0.00 | 53 | 1008.0 |
| 20260504001538 | 7 | 238 | 0.0 | 0.0 | 0.00 | 0.03 | 0.00 | 52 | 1007.9 |
| 20260504001033 | 7 | 238 | 0.0 | 0.0 | 0.00 | 0.03 | 0.00 | 51 | 1007.9 |
| 20260504000533 | 8 | 238 | 0.0 | 0.0 | 0.00 | 0.03 | 0.00 | 51 | 1007.7 |
| 20260504000033 | 8 | 238 | 0.0 | 4.8 | 0.00 | 0.03 | 0.00 | 51 | 1007.7 |
| 20260503235532 | 8 | 238 | 1.6 | 6.4 | 0.00 | 0.08 | 0.00 | 49 | 1007.6 |
| 20260503235033 | 8 | 173 | 0.0 | 6.4 | 0.00 | 0.08 | 0.00 | 48 | 1007.6 |
| 20260503234535 | 8 | 246 | 0.0 | 14.5 | 0.00 | 0.08 | 0.00 | 47 | 1007.6 |
| 20260503234032 | 8 | 238 | 3.2 | 14.5 | 0.00 | 0.08 | 0.00 | 46 | 1007.5 |
| 20260503233531 | 8 | 198 | 3.2 | 14.5 | 0.00 | 0.08 | 0.00 | 46 | 1007.5 |
| 20260503233032 | 8 | 215 | 6.4 | 14.5 | 0.00 | 0.08 | 0.00 | 45 | 1007.4 |
| 20260503232537 | 8 | 207 | 4.8 | 17.7 | 0.00 | 0.08 | 0.00 | 45 | 1007.3 |
| 20260503232031 | 9 | 289 | 9.7 | 17.7 | 0.00 | 0.08 | 0.00 | 45 | 1007.3 |
| 20260503231531 | 9 | 311 | 4.8 | 17.7 | 0.00 | 0.08 | 0.00 | 45 | 1007.2 |
| 20260503231033 | 9 | 287 | 9.7 | 17.7 | 0.00 | 0.08 | 0.00 | 44 | 1007.2 |
| 20260503230531 | 9 | 254 | 6.4 | 20.9 | 0.00 | 0.08 | 0.00 | 44 | 1007.1 |
| 20260503230050 | 9 | 312 | 6.4 | 20.9 | 0.00 | 0.08 | 0.00 | 44 | 1007.0 |
| 20260503225533 | 9 | 262 | 8.0 | 19.3 | 0.00 | 0.15 | 0.00 | 43 | 1007.0 |